Theta_e
313 315 315 315 315 313 307 305 306 307 307 306 306 302 302 304 304 303 301 302 304 303 305 305 307 308 309 308 307 304 306 306 307 307 308 305 308 305 304 308 309 314 312 313 321
313 314 315 315 315 315 309 305 306 306 306 306 304 302 302 303 304 302 301 303 302 303 305 305 305 307 306 308 306 303 304 307 305 304 306 305 306 303 307 308 310 316 315 317 320
313 313 315 315 314 315 313 305 305 305 304 305 303 302 302 304 303 302 302 303 302 303 305 305 305 307 308 307 307 306 306 305 305 305 303 304 305 301 305 307 307 313 316 314 317
312 313 314 314 314 315 315 306 305 303 304 304 302 301 303 307 309 301 302 303 303 304 304 304 305 306 307 307 306 307 305 305 305 303 303 304 301 303 304 305 303 307 316 314 313
315 313 314 314 314 314 315 306 304 301 302 303 302 301 305 301 300 302 303 303 304 304 303 303 305 304 306 307 306 305 305 304 303 303 303 302 302 303 302 302 310 314 315 314 313
316 315 314 314 314 314 315 306 303 302 300 300 301 303 304 304 301 302 303 303 304 305 304 304 303 303 304 304 305 304 304 304 303 304 303 303 302 302 302 301 311 314 314 313 313
317 316 314 315 314 314 315 307 302 302 302 301 300 301 299 301 302 302 304 304 304 305 304 304 304 304 303 304 303 303 304 304 305 303 304 303 306 302 301 300 308 312 312 311 312
316 316 315 315 314 313 314 310 303 302 301 302 302 301 299 301 302 303 303 304 304 304 304 304 305 304 304 303 302 303 302 303 305 303 305 305 306 303 298 299 300 300 300 302 300
315 315 315 315 314 313 312 308 305 303 302 301 302 301 300 302 303 303 302 303 305 305 305 306 305 303 305 305 305 305 306 305 306 303 303 305 306 302 297 299 299 299 299 299 300
315 315 315 314 314 311 307 306 304 304 305 303 302 305 301 301 302 303 304 304 304 305 305 307 306 304 302 306 308 310 308 309 308 304 301 305 305 301 297 299 298 299 299 299 299
315 314 314 314 314 305 305 307 307 303 300 299 300 301 301 303 303 302 303 305 306 306 306 308 306 304 304 303 304 306 307 308 306 302 302 302 302 300 299 297 298 299 299 299 298
314 313 313 313 307 304 305 302 301 301 301 300 301 301 301 302 303 302 304 305 306 307 308 307 305 303 303 304 304 306 308 307 304 301 302 300 300 298 298 298 297 298 298 299 298
313 313 311 312 306 304 301 302 302 303 301 303 301 301 302 302 302 303 302 305 304 304 303 306 304 303 303 302 305 301 305 303 303 299 300 297 300 300 298 297 297 297 297 298 298
312 313 310 311 305 306 303 302 302 304 297 301 302 302 302 302 304 302 302 303 303 303 303 302 301 304 302 301 302 308 300 301 300 297 299 296 300 297 297 297 297 296 295 297 297
312 313 306 306 304 302 302 302 303 303 297 299 301 302 302 302 302 302 302 302 303 302 302 303 301 301 302 300 300 303 298 299 298 294 293 293 290 294 297 297 296 294 294 294 295
309 307 305 305 303 303 303 305 304 299 295 298 300 301 301 300 300 300 301 301 300 301 300 300 298 298 299 298 298 297 298 297 297 290 290 287 290 295 296 297 296 295 293 293 293
302 303 303 304 302 303 305 303 300 299 294 298 302 301 300 299 300 299 300 299 301 296 297 298 300 298 297 300 299 297 291 292 292 294 295 280 294 298 297 295 295 294 293 292 293
303 301 299 299 302 304 303 298 297 290 294 301 302 302 302 299 300 299 301 299 298 299 294 292 293 296 295 298 300 297 290 290 286 292 295 281 294 299 295 293 294 293 292 292 292
303 301 299 298 301 304 298 296 294 297 302 303 301 296 295 300 298 297 299 299 299 297 296 294 295 296 295 295 295 294 290 292 284 275 286 291 291 293 294 291 294 293 292 292 291
303 301 298 298 299 299 296 296 293 299 301 301 302 297 292 291 298 293 296 299 300 297 293 297 292 289 296 296 293 293 292 291 286 288 285 289 282 295 290 290 290 293 292 291 290
302 297 298 298 298 294 296 287 292 297 300 302 302 294 300 295 298 295 297 299 298 297 296 290 288 290 294 289 290 290 290 289 289 291 290 288 294 288 288 284 289 290 291 289 288
299 298 298 300 296 277 289 288 298 301 300 301 299 299 295 297 297 290 299 295 297 294 298 297 293 290 291 293 294 293 292 294 292 288 289 291 295 284 280 279 278 284 287 284 282
292 292 296 298 295 286 288 293 298 300 300 300 299 299 296 291 292 298 298 298 298 297 298 296 288 287 292 290 291 292 294 292 288 293 291 291 296 280 277 279 282 284 285 287 284
292 295 290 291 288 292 290 293 295 297 300 299 300 298 298 290 293 290 297 299 297 297 300 297 294 289 293 290 286 290 292 294 291 287 295 292 296 293 292 285 285 283 282 281 279
289 290 289 291 291 294 295 294 296 294 298 298 295 298 295 291 292 289 295 297 298 298 297 294 289 292 290 286 286 290 291 290 291 295 293 296 288 292 291 284 285 282 278 277 280
291 292 287 287 295 296 297 296 295 294 297 298 293 296 295 290 294 295 296 296 296 297 297 294 287 284 287 290 292 291 293 293 291 294 289 292 293 294 293 272 280 285 278 280 282
295 296 292 292 294 293 294 295 296 295 296 297 296 296 297 296 294 295 294 293 295 295 296 290 284 281 287 283 282 287 287 291 287 281 286 288 291 277 281 281 282 284 277 281 281
Wind_Speed
11 12 13 13 14 16 17 17 16 14 10 9 5 5 3 4 4 4 7 9 10 11 7 6 3 2 2 3 4 3 4 1 3 4 1 4 1 2 1 4 2 2 1 2 24
10 11 12 13 14 15 17 17 15 13 10 7 6 5 1 2 5 10 11 11 10 8 4 7 3 4 3 2 3 4 3 4 1 1 1 4 2 5 2 2 1 2 6 16 25
10 11 12 13 14 17 17 18 16 12 10 7 5 5 2 1 2 2 13 10 8 5 4 3 2 1 3 2 1 2 3 3 2 1 1 4 2 4 2 3 4 5 7 7 18
10 10 11 13 15 16 17 19 16 12 9 7 5 5 2 2 2 6 13 9 6 4 3 2 2 3 3 2 1 3 2 1 0 1 2 2 5 3 3 2 4 4 12 9 9
10 10 12 14 14 15 16 18 14 11 8 7 5 2 1 5 3 11 11 8 4 3 3 2 3 1 4 2 2 2 1 2 1 3 1 4 2 3 4 2 5 12 9 8 9
10 11 11 13 15 14 15 17 12 9 8 6 5 2 0 4 6 12 11 8 7 5 3 5 2 0 4 3 2 2 2 2 3 4 3 3 3 3 1 3 5 7 7 6 9
10 9 10 12 13 15 13 15 10 9 6 6 5 3 7 1 7 11 9 7 7 5 2 3 2 1 1 3 1 3 3 3 3 5 3 2 3 3 2 3 5 4 4 5 8
8 8 9 11 14 15 12 13 7 8 6 5 5 3 2 5 6 13 10 5 6 3 2 2 3 4 3 1 6 3 4 2 2 6 2 3 4 3 6 3 4 3 2 3 3
6 7 8 11 14 13 10 12 4 6 5 5 3 3 2 6 6 13 11 8 9 3 4 2 3 4 5 4 4 6 2 2 2 3 3 2 4 5 7 5 5 4 4 4 3
4 5 7 9 12 11 10 4 5 8 4 5 6 3 5 5 7 11 9 9 3 6 3 6 5 4 4 5 2 2 1 2 2 5 4 2 4 2 5 3 4 3 3 3 4
3 5 7 7 9 10 8 2 4 5 14 4 3 1 3 11 4 10 9 6 4 6 4 5 6 3 2 2 2 2 2 2 1 2 3 2 4 5 1 3 3 2 1 2 5
4 7 7 5 7 7 6 7 2 2 4 8 3 2 3 7 4 12 11 3 5 3 3 5 3 2 4 5 4 5 2 3 4 4 2 5 8 7 6 4 5 5 3 2 4
2 8 7 4 3 9 16 7 3 1 4 4 3 3 4 6 3 7 7 2 5 5 5 5 1 5 3 6 5 3 2 3 3 6 3 6 7 4 3 2 2 1 2 1 0
2 6 8 2 2 5 6 4 2 2 5 8 6 5 4 2 3 3 5 2 5 3 3 5 5 3 3 4 2 1 2 1 2 4 3 4 5 5 6 6 5 5 4 3 1
5 4 5 5 4 4 2 2 2 2 5 7 7 6 7 5 5 7 6 6 3 2 3 2 4 5 5 1 1 1 3 2 2 4 4 4 3 7 1 7 9 8 7 5 3
4 3 2 3 8 6 4 3 2 6 1 6 5 6 5 7 7 6 6 7 4 4 6 3 2 4 1 2 3 1 2 5 4 3 2 3 3 6 5 6 4 4 7 6 5
10 8 8 7 2 5 3 3 5 6 3 7 4 5 1 6 6 7 5 6 3 5 5 4 2 3 3 1 2 5 5 4 5 4 5 3 1 10 4 5 4 9 8 7 5
6 7 13 12 6 3 2 5 9 3 4 2 3 2 4 5 3 7 2 4 5 4 3 4 6 2 5 3 1 3 5 5 5 2 5 2 6 6 2 6 3 6 7 6 6
2 4 5 11 6 2 5 6 7 6 2 2 2 6 5 4 1 4 4 1 1 3 4 3 4 2 3 3 3 1 2 3 6 2 3 3 8 8 4 4 1 6 7 8 7
3 2 5 12 7 2 5 3 2 2 2 1 2 2 1 4 2 4 2 1 2 2 3 2 4 1 4 1 4 3 2 4 3 1 6 5 6 6 6 8 5 8 9 9 8
2 3 4 11 4 5 4 5 4 4 1 2 0 1 2 2 1 1 1 0 2 2 3 3 4 4 2 3 6 2 2 4 3 3 4 3 5 7 7 4 10 10 10 8 8
2 2 9 6 4 1 2 5 3 1 2 0 1 2 4 2 1 1 2 5 2 3 1 1 3 3 8 0 1 2 5 5 4 6 4 2 8 3 4 4 4 7 7 5 6
2 2 4 4 3 1 3 2 1 1 1 1 1 2 2 3 3 1 1 1 0 1 1 3 2 4 7 4 4 3 4 3 2 2 7 2 9 2 4 6 7 9 10 11 7
3 2 4 5 1 6 4 1 1 1 1 1 1 2 2 4 1 2 2 1 1 1 2 1 2 7 7 6 3 3 4 5 5 3 8 9 26 11 14 6 7 8 10 7 7
4 2 3 1 3 2 2 5 3 3 0 2 4 2 4 0 3 2 2 3 1 2 2 3 5 2 3 6 5 7 11 9 11 13 9 26 9 17 13 7 8 6 5 6 9
3 4 2 2 1 4 2 4 6 3 4 2 4 4 5 5 5 3 3 3 3 0 4 1 3 2 5 4 5 6 16 15 18 16 10 21 24 24 20 2 6 10 5 9 10
3 3 3 2 2 3 4 5 5 5 2 1 4 4 4 5 4 3 3 2 3 4 4 1 3 3 6 3 5 7 11 13 4 3 5 5 12 3 5 6 7 9 6 10 10
Wind_Direction
355 358 1 4 5 4 0 358 357 355 353 352 355 2 35 37 79 51 34 340 332 338 339 340 63 52 43 63 59 105 62 216 210 160 209 349 139 9 261 114 47 13 201 279 159
341 347 351 354 357 359 358 355 356 358 352 358 353 357 67 95 66 54 1 349 339 342 352 31 34 8 36 32 34 84 122 218 229 270 295 327 20 333 4 28 24 44 35 130 151
332 336 338 343 348 353 355 353 352 356 354 356 355 346 5 106 84 13 353 351 347 346 334 339 19 32 63 48 43 157 178 171 212 303 342 321 328 327 136 257 222 194 156 129 149
320 324 329 336 341 346 350 354 350 350 354 350 355 344 11 71 90 356 348 349 347 353 352 330 40 57 90 132 43 98 49 167 197 357 338 290 313 298 284 282 324 198 148 142 154
308 316 325 337 344 347 349 352 353 349 352 347 352 359 29 51 3 347 355 354 359 7 30 13 65 98 136 114 60 69 157 48 342 14 357 320 298 285 290 359 54 119 138 159 170
306 313 326 338 340 341 344 353 355 355 3 5 11 10 344 74 349 352 355 13 21 30 35 38 82 344 96 72 95 90 71 28 355 2 337 359 305 21 291 93 99 140 177 182 190
306 312 321 330 338 347 342 354 357 360 1 12 19 36 55 78 6 5 1 4 10 19 30 41 11 55 67 83 34 99 47 348 10 344 317 14 314 257 346 121 146 198 222 220 232
306 309 317 323 335 339 336 346 344 358 7 24 26 26 75 2 358 10 12 13 7 29 75 22 60 96 55 137 25 49 44 4 332 1 3 56 278 27 354 151 148 173 205 133 81
299 307 303 326 338 338 335 335 333 345 4 23 42 61 17 346 13 2 5 354 342 31 53 15 66 78 16 74 30 15 205 216 324 52 314 168 261 359 346 123 157 111 93 87 37
294 299 313 330 339 340 340 31 55 42 35 46 34 47 18 320 328 347 360 2 352 338 20 38 43 60 27 53 226 275 300 264 270 334 346 309 265 337 359 98 148 114 78 56 19
308 309 331 337 350 352 2 52 21 2 37 98 286 130 323 331 5 7 356 356 357 40 50 4 66 56 347 314 288 307 293 310 323 32 348 328 281 285 118 90 151 165 271 354 2
336 14 360 19 18 31 43 72 107 131 56 35 41 34 3 347 2 354 9 61 51 68 339 32 82 304 293 19 68 38 30 325 289 14 4 2 280 262 200 215 204 202 229 327 350
30 18 7 343 38 45 73 70 73 55 82 5 14 11 325 5 38 327 14 58 74 48 21 102 357 334 61 30 41 47 30 350 259 326 59 337 289 237 214 171 166 166 193 184 59
15 10 360 344 90 51 55 38 47 35 78 328 346 359 350 340 32 331 17 84 38 148 82 83 325 50 73 79 22 173 322 305 353 40 254 20 277 285 224 224 219 210 219 198 151
28 359 51 74 105 67 34 47 49 75 59 310 317 317 342 54 320 1 10 25 76 58 86 270 13 25 61 336 331 148 39 40 69 78 35 353 60 270 43 248 232 219 212 209 193
33 39 49 71 64 59 49 77 83 43 296 341 327 346 16 15 360 318 20 50 138 67 35 67 52 51 16 30 38 32 48 38 56 83 8 294 115 278 195 215 204 194 200 201 190
66 63 74 61 65 22 47 38 41 90 337 309 330 8 98 345 356 25 28 20 68 55 2 357 10 337 30 350 32 60 49 336 353 8 227 309 323 245 294 279 235 195 192 199 201
55 56 55 50 28 33 101 54 65 246 245 328 317 346 62 351 15 350 54 31 36 62 86 100 333 23 354 77 161 68 132 146 233 305 272 358 243 252 282 320 311 162 165 183 199
20 15 37 4 7 17 73 50 186 196 223 339 335 56 335 353 32 37 26 198 284 44 126 94 290 344 30 10 57 270 58 151 102 43 37 254 293 309 5 328 118 160 172 201 207
124 58 8 352 349 59 72 170 177 240 314 245 123 132 205 290 30 60 352 253 353 60 113 146 353 320 301 73 27 133 160 40 6 327 289 294 289 248 291 248 232 214 209 214 211
342 55 2 349 5 46 109 214 223 236 270 359 309 13 265 270 287 281 250 59 28 59 94 123 96 286 28 197 182 28 338 40 127 146 204 283 255 213 229 237 223 228 224 220 212
67 34 348 358 46 24 104 185 220 355 32 352 74 120 184 131 291 330 288 202 19 127 70 69 143 260 231 247 245 198 203 165 132 261 240 205 262 35 218 239 247 267 248 241 225
100 236 353 18 110 339 305 335 294 102 110 143 146 71 100 163 21 245 270 53 59 146 166 164 305 347 335 15 356 236 222 173 117 77 223 149 270 322 300 303 259 244 240 236 223
86 28 335 46 19 126 139 227 167 356 323 23 29 90 131 23 43 265 282 337 53 170 132 130 198 187 205 210 146 220 240 205 147 151 259 216 270 305 284 272 278 264 252 245 216
32 231 177 270 336 75 100 149 138 181 233 111 353 206 161 344 332 251 246 294 90 352 107 126 215 232 252 224 206 218 240 210 199 225 212 271 248 270 276 252 258 261 253 223 234
126 129 359 146 126 126 5 228 177 248 148 206 165 190 174 178 201 234 181 220 235 88 184 105 262 100 283 320 246 264 258 247 235 255 269 266 280 269 282 322 284 268 253 246 239
121 111 104 330 90 93 217 176 215 141 248 195 178 143 212 237 218 270 262 281 252 184 197 210 115 56 264 355 342 302 238 226 194 223 169 215 253 17 292 283 268 274 224 243 240